[[{"header":{"parameterUnit":"m.s-1","parameterCategory":2,"la1":30.2991,"la2":30.254,"lo1":-89.0895,"lo2":-89.0444,"dy":0.0017,"dx":0.0017,"nx":28,"ny":28,"refTime":"2024-07-14T09:00:00:Z","depth":"0","parameterNumber":2,"parameterNumberName":"U-component_of_CURRENTS"},"data":[0,0,0,0,0,0,0,0,0,0,0,0,0,0,0,0,0,0,0,0,0,0,0,0,0,0,0,0,0,0,0,0,0,0,0,0,0,0,0,0,0,0,0,0,0,0,0,0,0,0,0,0,0,0,0,0,0,0,0.4232,0.4232,0,0.4217,0.4217,0.4217,0.4224,0.4225,0.4225,0.4226,0.4264,0.4264,0.4265,0,0,0,0,0,0,0,0,0,0,0,0,0,0.4263,0.4262,0.4232,0.4232,0.4232,0.4217,0.4217,0.4217,0.4224,0.4225,0.4225,0.4226,0.4263,0.4264,0.4265,0,0,0,0,0,0,0,0,0,0,0,0,0,0.4247,0.4262,0.4232,0.4235,0.4235,0.4218,0.4217,0.4217,0.4224,0.4225,0.4225,0.4226,0.4263,0.4264,0.4265,0.4253,0,0,0.4267,0.4267,0,0,0,0,0,0,0,0,0.4248,0.4246,0.4235,0.4235,0.4235,0.4225,0.4242,0.4232,0.4224,0.4226,0.4226,0.4227,0.4256,0.4257,0.425,0.4255,0.4256,0.4267,0.4268,0.4268,0.4268,0,0,0,0,0,0,0,0.4249,0.4246,0.4224,0.4235,0.4235,0.4236,0.4235,0.424,0.4236,0.4226,0.4227,0.4228,0.4256,0.4249,0.4251,0.4257,0.4267,0.4268,0.4268,0.4268,0.4339,0.434,0,0,0,0,0,0,0.4253,0.4247,0.4225,0.4224,0.4246,0.4235,0.4233,0.4226,0.4235,0.4237,0.4227,0.4228,0.4247,0.425,0.4252,0.4264,0.4268,0.4269,0.4269,0.4337,0.4339,0.4341,0,0,0,0,0,0,0.4254,0.4251,0.4225,0.4237,0.4235,0.4234,0.4225,0.4225,0.4219,0.4236,0.4239,0.4222,0.4248,0.4251,0.4263,0.4265,0.4269,0.427,0.4336,0.4338,0.434,0.4271,0,0,0,0,0,0,0.4255,0.4251,0.4246,0.4237,0.4234,0.421,0.4225,0.4224,0.4219,0.4221,0.4232,0.4237,0.4249,0.4262,0.4264,0.4266,0.427,0.4334,0.4337,0.4339,0.4272,0.4271,0.427,0,0,0,0,0,0.4256,0.4245,0.4245,0.4243,0.4227,0.4209,0.4207,0.4209,0.4218,0.4208,0.4227,0.4236,0.4282,0.4262,0.4265,0.4267,0.4333,0.4336,0.4339,0.4272,0.4271,0.427,0,0,0,0,0,0,0.4257,0.4244,0.4245,0.4231,0.422,0.4211,0.4204,0.4206,0.4209,0.4215,0.4234,0.4239,0.4262,0.4278,0.4257,0.4304,0.4317,0.4321,0.4266,0.4265,0.4264,0.4263,0.4271,0,0,0,0,0,0.4254,0.424,0.4231,0.4218,0.4213,0.4207,0.4201,0.4201,0.4204,0.4205,0.4213,0.4242,0.4276,0.4279,0.4309,0.4309,0.4375,0.4325,0.4324,0.4322,0.4329,0.4446,0.4456,0.4351,0.4351,0.4351,0,0,0.4251,0.4243,0.4234,0.4217,0.4209,0.4188,0.4205,0.4192,0.4179,0.421,0.4198,0.4236,0.4281,0.4296,0.4308,0.4305,0.4385,0.4326,0.4324,0.4332,0.4451,0.4461,0.447,0.4353,0.4353,0.4353,0,0,0.4233,0.4228,0.4209,0.4193,0.418,0.4175,0.4171,0.4159,0.4161,0.4153,0.4195,0.4234,0.4248,0.4289,0.4313,0.4328,0.4386,0.4341,0.4315,0.4428,0.4437,0.4446,0.4526,0.4542,0.4327,0.4327,0.4327,0,0.4234,0.4203,0.4201,0.4175,0.416,0.4167,0.4141,0.4139,0.4133,0.4144,0.4145,0.4225,0.4251,0.4305,0.4308,0.4323,0.439,0.4302,0.4425,0.4435,0.4446,0.4525,0.4545,0.4324,0.4325,0.4325,0.4325,0,0.4196,0.417,0.4156,0.4124,0.4109,0.4087,0.4083,0.4079,0.4085,0.4094,0.4145,0.4192,0.4251,0.4262,0.4278,0.4365,0.439,0.4416,0.4418,0.4451,0.4534,0.4555,0.432,0.4321,0.4322,0.4323,0,0,0.4203,0.4142,0.4138,0.4105,0.4079,0.4059,0.405,0.4049,0.4052,0.4074,0.41,0.4164,0.4215,0.425,0.4296,0.4367,0.4481,0.4408,0.4415,0.4469,0.4719,0.4612,0.4625,0.4531,0.4535,0.4538,0.474,0,0.4175,0.4114,0.4095,0.4034,0.4,0.4,0.3986,0.3992,0.401,0.4034,0.4119,0.4168,0.4205,0.4243,0.4326,0.4451,0.4538,0.4423,0.4695,0.4702,0.4589,0.4646,0.4405,0.4555,0.4761,0.4765,0.4767,0,0.4147,0.4106,0.4044,0.3981,0.3969,0.394,0.3932,0.3922,0.3973,0.3997,0.4079,0.4149,0.427,0.4295,0.4541,0.4469,0.4596,0.4683,0.4694,0.4634,0.4635,0.4562,0.4586,0.4461,0.4801,0.4798,0.4796,0,0.4145,0.407,0.4018,0.3993,0.3932,0.3917,0.39,0.392,0.3925,0.3998,0.403,0.4178,0.4262,0.4453,0.4621,0.4611,0.4873,0.4895,0.4922,0.4915,0.4783,0.4757,0.4702,0.509,0.509,0.5089,0.5088,0,0.4119,0.4074,0.4009,0.3974,0.3919,0.3895,0.3867,0.3875,0.3911,0.3931,0.403,0.4096,0.4311,0.447,0.464,0.4829,0.4916,0.4932,0.4969,0.4749,0.4719,0.4662,0.4572,0.5097,0.5095,0.5093,0.5092,0,0.4112,0.4074,0.4003,0.3933,0.3911,0.3877,0.3838,0.3825,0.387,0.391,0.3945,0.4075,0.4267,0.4456,0.4741,0.4835,0.4888,0.5083,0.4778,0.4773,0.4649,0.4562,0.4468,0.436,0.5161,0.5159,0.5158,0,0.4096,0.4059,0.3974,0.3935,0.3898,0.3847,0.3812,0.3813,0.3813,0.3902,0.393,0.4091,0.4203,0.4526,0.4689,0.4938,0.4829,0.4854,0.4788,0.4607,0.4542,0.4409,0.4316,0.4598,0.4593,0.4588,0.4585,0,0.4053,0.4032,0.3977,0.3906,0.3853,0.379,0.3753,0.3747,0.3768,0.3802,0.3874,0.397,0.4207,0.4292,0.4541,0.469,0.4555,0.4766,0.4678,0.4165,0.3921,0.3844,0.4488,0.4543,0.4548,0.4551,0.4553,0.4554,0.4022,0.3986,0.3924,0.3852,0.3797,0.3734,0.3653,0.3646,0.3633,0.3604,0.3758,0.3769,0.3889,0.4188,0.4332,0.4309,0.4333,0.4216,0.4155,0.4063,0.3835,0.4358,0.4384,0.4387,0.439,0.4392,0.4394,0,0.3949,0.3919,0.3863,0.3767,0.3683,0.3672,0.3592,0.3486,0.3425,0.3434,0.3445,0.343,0.3507,0.3664,0.3752,0.3697,0.3648,0.3599,0.3353,0.3323,0.3888,0.3736,0.3497,0.3497,0.3497,0.3498,0.3498,0.3498,0.3906,0.3832,0.3804,0.3659,0.3592,0.3403,0.3326,0.3201,0.3143,0.297,0.2876,0.2905,0.3085,0.3158,0.3165,0.3153,0.2976,0.2806,0.2886,0.3257,0.331,0.336,0.3199,0.2852,0.2851,0.2212,0.2206,0.2201]},{"header":{"parameterUnit":"m.s-1","parameterCategory":2,"la1":30.2991,"la2":30.254,"lo1":-89.0895,"lo2":-89.0444,"dy":0.0017,"dx":0.0017,"nx":28,"ny":28,"refTime":"2024-07-14T09:00:00:Z","depth":"0","parameterNumber":3,"parameterNumberName":"V-component_of_CURRENTS"},"data":[0,0,0,0,0,0,0,0,0,0,0,0,0,0,0,0,0,0,0,0,0,0,0,0,0,0,0,0,0,0,0,0,0,0,0,0,0,0,0,0,0,0,0,0,0,0,0,0,0,0,0,0,0,0,0,0,0,0,-0.0156,-0.0155,0,-0.0088,-0.0087,-0.0087,-0.0069,-0.0069,-0.007,-0.007,-0.0033,-0.0031,-0.003,0,0,0,0,0,0,0,0,0,0,0,0,0,-0.0232,-0.0231,-0.0156,-0.0155,-0.0154,-0.0089,-0.0087,-0.0086,-0.0069,-0.0069,-0.007,-0.0071,-0.0033,-0.0031,-0.0029,0,0,0,0,0,0,0,0,0,0,0,0,0,-0.0184,-0.0231,-0.0156,-0.0138,-0.0136,-0.0089,-0.0087,-0.0086,-0.0069,-0.0069,-0.007,-0.0071,-0.0034,-0.0031,-0.0029,0.0001,0,0,-0.0022,-0.0021,0,0,0,0,0,0,0,0,-0.0187,-0.0181,-0.0142,-0.014,-0.0137,-0.0089,-0.0101,-0.0059,-0.0068,-0.0093,-0.007,-0.0071,-0.0054,-0.005,-0.0034,0.0002,0.0004,-0.0022,-0.0021,-0.002,-0.0019,0,0,0,0,0,0,0,-0.0191,-0.0184,-0.0128,-0.0141,-0.0138,-0.0122,-0.0116,-0.0092,-0.007,-0.0091,-0.009,-0.0084,-0.0053,-0.0036,-0.0033,0.0005,-0.0022,-0.002,-0.0019,-0.0018,0.0082,0.0084,0,0,0,0,0,0,-0.0202,-0.0187,-0.013,-0.0126,-0.0166,-0.012,-0.0113,-0.0103,-0.0069,-0.0065,-0.0084,-0.0084,-0.0039,-0.0035,-0.0032,0.0037,-0.002,-0.0018,-0.0016,0.0081,0.0083,0.0084,0,0,0,0,0,0,-0.0204,-0.0198,-0.0133,-0.0156,-0.0147,-0.0118,-0.0106,-0.0101,-0.0085,-0.0063,-0.006,-0.0074,-0.004,-0.0035,0.0004,0.0037,-0.0017,-0.0015,0.0079,0.0081,0.0083,0.0154,0,0,0,0,0,0,-0.0206,-0.0198,-0.0193,-0.0157,-0.0146,-0.0102,-0.0105,-0.0099,-0.0081,-0.008,-0.0054,-0.0051,-0.004,0.0001,0.0006,0.0039,-0.0013,0.0078,0.008,0.0083,0.015,0.0158,0.0165,0,0,0,0,0,-0.0209,-0.0197,-0.0193,-0.0186,-0.014,-0.0101,-0.0094,-0.0075,-0.008,-0.0066,-0.0041,-0.0052,0.0019,0.0004,0.001,0.0044,0.0077,0.008,0.0082,0.0146,0.0156,0.0165,0,0,0,0,0,0,-0.0233,-0.0193,-0.0188,-0.0166,-0.0137,-0.0099,-0.0084,-0.0074,-0.0043,-0.0044,-0.0029,-0.0023,0.0023,0.0021,0.0004,0.0079,0.0044,0.0048,0.009,0.01,0.0107,0.012,-0.0011,0,0,0,0,0,-0.0234,-0.0211,-0.0177,-0.0159,-0.0146,-0.0116,-0.0099,-0.0084,-0.0054,-0.0041,-0.0019,0.0005,0.0042,0.0059,0.0084,0.0128,0.0112,0.0151,0.0158,0.0165,0.0179,0.0183,0.0193,0.0094,0.0094,0.0094,0,0,-0.0239,-0.0214,-0.0202,-0.0162,-0.0139,-0.0095,-0.0107,-0.0078,-0.0032,-0.0042,0.0021,0.0033,0.0058,0.0113,0.0132,0.0115,0.0183,0.0169,0.0174,0.0185,0.0188,0.0197,0.0206,0.0096,0.0095,0.0095,0,0,-0.0227,-0.0215,-0.0186,-0.0154,-0.0116,-0.0088,-0.008,-0.0038,-0.0014,0.0043,0.0053,0.0088,0.0134,0.0171,0.0193,0.0255,0.0221,0.0252,0.0307,0.0311,0.032,0.0327,0.0309,0.0314,0.0258,0.0258,0.0258,0,-0.0236,-0.0187,-0.0173,-0.013,-0.0092,-0.0082,-0.003,0.0002,0.0054,0.0087,0.0068,0.0163,0.0171,0.026,0.0278,0.0275,0.0257,0.0272,0.0321,0.0328,0.0334,0.0315,0.0319,0.0261,0.0261,0.0261,0.026,0,-0.019,-0.0149,-0.0129,-0.0062,-0.0023,0.0019,0.0069,0.0108,0.013,0.0165,0.0241,0.0263,0.0319,0.0324,0.0322,0.0382,0.0348,0.0328,0.0298,0.0348,0.0324,0.0328,0.0267,0.0265,0.0264,0.0263,0,0,-0.0202,-0.0114,-0.0103,-0.0053,0.0021,0.0062,0.0138,0.0217,0.0277,0.0309,0.04,0.0441,0.0437,0.0461,0.0463,0.0465,0.0481,0.0414,0.0412,0.0397,0.0471,0.0441,0.044,0.0462,0.0463,0.0465,0.0433,0,-0.0163,-0.0072,-0.0031,0.007,0.0127,0.0175,0.0251,0.0319,0.037,0.0455,0.0481,0.0553,0.0496,0.0529,0.0526,0.0509,0.0494,0.049,0.0425,0.0423,0.0391,0.0446,0.0436,0.0407,0.0436,0.0436,0.0437,0,-0.0113,-0.0055,0.0043,0.0158,0.0186,0.0246,0.0374,0.0443,0.0547,0.0585,0.0647,0.0669,0.0718,0.0648,0.0627,0.0623,0.0548,0.0509,0.0507,0.046,0.0401,0.0364,0.0412,0.0262,0.0441,0.0441,0.0441,0,-0.0099,0.0009,0.009,0.013,0.025,0.0306,0.0373,0.0479,0.0561,0.0672,0.0741,0.0782,0.0823,0.0758,0.0674,0.065,0.0627,0.0585,0.0483,0.0479,0.0451,0.0443,0.035,0.0544,0.0544,0.0544,0.0544,0,-0.0048,0.0023,0.0099,0.015,0.0255,0.0327,0.0449,0.052,0.0648,0.0771,0.0802,0.0912,0.0846,0.0835,0.0726,0.0627,0.0661,0.0509,0.0481,0.0473,0.0468,0.0319,0.0257,0.0543,0.0543,0.0544,0.0544,0,-0.0016,0.003,0.0127,0.0231,0.0268,0.0345,0.0492,0.0588,0.0686,0.0858,0.0904,0.1008,0.1001,0.0907,0.0816,0.0699,0.0533,0.0541,0.0527,0.0499,0.0269,0.0214,0.0121,0.0102,0.0444,0.0443,0.0443,0,0.0021,0.0068,0.0169,0.0222,0.0274,0.0385,0.0477,0.0597,0.0716,0.0933,0.1036,0.1089,0.1179,0.1035,0.0827,0.0639,0.0508,0.0478,0.0434,0.0271,0.0189,0.0143,0.0131,0.0415,0.0415,0.0414,0.0413,0,0.009,0.0109,0.0182,0.0275,0.0365,0.0482,0.0622,0.0729,0.0906,0.1063,0.1285,0.1378,0.1254,0.1111,0.0823,0.0675,0.0402,0.0458,0.0304,0.0182,0.0114,0.0077,0.0399,0.0408,0.0408,0.0409,0.0409,0.0409,0.0136,0.0188,0.0262,0.0361,0.0456,0.0606,0.0736,0.0902,0.1122,0.1383,0.1441,0.1593,0.1331,0.0975,0.0757,0.0309,0.035,0.017,0.0121,0.0092,0.0064,0.0365,0.0333,0.0333,0.0334,0.0334,0.0334,0,0.0209,0.0269,0.0354,0.0486,0.0607,0.0647,0.0864,0.1011,0.1289,0.1473,0.1652,0.1592,0.1268,0.089,0.031,0.002,-0.0058,-0.0141,-0.0216,-0.0204,0.0067,0.0054,-0.0057,-0.0057,-0.0057,-0.0057,-0.0056,-0.0056,0.0257,0.0351,0.0397,0.0609,0.0709,0.0899,0.1039,0.1237,0.1398,0.1616,0.169,0.1726,0.146,0.0482,-0.0191,-0.0335,-0.0475,-0.0531,-0.0577,-0.0432,-0.0408,-0.0385,-0.0414,-0.0621,-0.0622,-0.0821,-0.0823,-0.0825]}],[{"header":{"parameterUnit":"m.s-1","parameterCategory":2,"la1":30.2991,"la2":30.254,"lo1":-89.0895,"lo2":-89.0444,"dy":0.0017,"dx":0.0017,"nx":28,"ny":28,"refTime":"2024-07-14T09:00:00:Z","depth":"2","parameterNumber":2,"parameterNumberName":"U-component_of_CURRENTS"},"data":[0,0,0,0,0,0,0,0,0,0,0,0,0,0,0,0,0,0,0,0,0,0,0,0,0,0,0,0,0,0,0,0,0,0,0,0,0,0,0,0,0,0,0,0,0,0,0,0,0,0,0,0,0,0,0,0,0,0,0.2207,0.2208,0,0.2279,0.2279,0.228,0.2315,0.2315,0.2315,0.2315,0.246,0.2464,0.2468,0,0,0,0,0,0,0,0,0,0,0,0,0,0.2173,0.2173,0.2207,0.2208,0.2208,0.2279,0.228,0.2281,0.2315,0.2315,0.2315,0.2315,0.2459,0.2464,0.2468,0,0,0,0,0,0,0,0,0,0,0,0,0,0.2211,0.2173,0.2207,0.2234,0.2237,0.2278,0.228,0.2281,0.2315,0.2315,0.2315,0.2315,0.2457,0.2463,0.2469,0.2506,0,0,0.2487,0.2489,0,0,0,0,0,0,0,0,0.2208,0.2212,0.2229,0.2232,0.2236,0.2288,0.2321,0.236,0.2315,0.2286,0.2315,0.2315,0.2409,0.2419,0.2432,0.2513,0.2519,0.2487,0.2491,0.2493,0.2495,0,0,0,0,0,0,0,0.2205,0.2209,0.2235,0.223,0.2234,0.2268,0.2272,0.2328,0.2349,0.2288,0.2291,0.2299,0.2412,0.2426,0.2436,0.2522,0.2487,0.2492,0.2496,0.2498,0.278,0.2784,0,0,0,0,0,0,0.2192,0.2206,0.2233,0.2238,0.2221,0.2268,0.2273,0.2271,0.2346,0.2357,0.2299,0.23,0.2416,0.2429,0.2441,0.2568,0.2493,0.2499,0.2502,0.2776,0.2781,0.2785,0,0,0,0,0,0,0.2191,0.2194,0.223,0.2224,0.2231,0.2268,0.2266,0.2273,0.2315,0.2353,0.2366,0.2336,0.2417,0.2433,0.2528,0.2571,0.2501,0.2507,0.2771,0.2778,0.2783,0.2773,0,0,0,0,0,0,0.219,0.2192,0.2202,0.2223,0.2231,0.2271,0.2266,0.2274,0.2317,0.2321,0.239,0.2401,0.2418,0.252,0.2534,0.2578,0.2511,0.2766,0.2774,0.2781,0.2768,0.2778,0.2786,0,0,0,0,0,0.2188,0.2199,0.2201,0.2206,0.2236,0.2272,0.2281,0.2307,0.232,0.2344,0.2402,0.24,0.2578,0.2527,0.2543,0.259,0.2763,0.2772,0.2781,0.2764,0.2776,0.2786,0,0,0,0,0,0,0.2193,0.2204,0.2207,0.2221,0.2251,0.2279,0.2305,0.2327,0.239,0.2404,0.2441,0.2458,0.2565,0.2593,0.2536,0.2703,0.2675,0.2688,0.2658,0.2669,0.2678,0.2699,0.2516,0,0,0,0,0,0.2195,0.2204,0.2225,0.224,0.2254,0.2287,0.2311,0.2331,0.2381,0.2408,0.245,0.2524,0.2612,0.2649,0.2723,0.2801,0.2857,0.2852,0.2861,0.2867,0.2903,0.3034,0.3056,0.2815,0.2815,0.2814,0,0,0.2201,0.2209,0.2215,0.2242,0.2265,0.229,0.2302,0.2346,0.2383,0.2417,0.2488,0.2559,0.2648,0.274,0.2791,0.2765,0.2962,0.2879,0.2883,0.2916,0.3045,0.3069,0.3089,0.2821,0.282,0.2819,0,0,0.2213,0.2225,0.2236,0.2258,0.2297,0.2318,0.2337,0.2378,0.2417,0.2488,0.2546,0.2655,0.2739,0.2827,0.2881,0.2995,0.3014,0.3012,0.3056,0.3181,0.3201,0.322,0.3286,0.3311,0.3002,0.3002,0.3002,0,0.2224,0.2234,0.2251,0.2267,0.2298,0.2331,0.2365,0.2403,0.2473,0.2533,0.2514,0.2728,0.279,0.2955,0.2993,0.3014,0.3065,0.2989,0.3188,0.3208,0.3227,0.3292,0.3319,0.3002,0.3002,0.3002,0.3002,0,0.2238,0.2254,0.2268,0.2293,0.2331,0.2369,0.2416,0.2472,0.2515,0.2562,0.2723,0.2815,0.2951,0.2985,0.3019,0.3202,0.3187,0.3185,0.3144,0.325,0.3312,0.334,0.3003,0.3003,0.3003,0.3003,0,0,0.2253,0.2273,0.228,0.2307,0.2356,0.2395,0.2465,0.2561,0.263,0.2705,0.2821,0.2985,0.3046,0.312,0.3187,0.329,0.3451,0.329,0.3296,0.3326,0.3693,0.3342,0.3338,0.3471,0.3477,0.3482,0.3666,0,0.227,0.2304,0.2313,0.2371,0.241,0.2462,0.2522,0.2616,0.269,0.2796,0.2936,0.3065,0.3091,0.317,0.3285,0.3434,0.3533,0.3399,0.3615,0.3622,0.3271,0.3363,0.3107,0.3221,0.3694,0.3699,0.3702,0,0.2294,0.2321,0.2374,0.2439,0.246,0.2495,0.2633,0.2686,0.2834,0.2898,0.3049,0.3141,0.3357,0.333,0.363,0.354,0.3634,0.3712,0.3721,0.3424,0.3324,0.3205,0.3255,0.375,0.3746,0.3742,0.3739,0,0.2336,0.2373,0.2425,0.2444,0.251,0.2567,0.2613,0.2738,0.2805,0.298,0.3055,0.3283,0.3421,0.3593,0.3767,0.372,0.4047,0.3996,0.3769,0.3744,0.3587,0.3534,0.4206,0.4206,0.4205,0.4205,0.4204,0,0.2365,0.2413,0.2445,0.2478,0.2549,0.2596,0.2683,0.2761,0.2879,0.2983,0.3118,0.3256,0.35,0.3696,0.3819,0.3871,0.4104,0.3799,0.3779,0.3565,0.3511,0.4024,0.4001,0.4211,0.421,0.4209,0.4207,0,0.241,0.2423,0.2488,0.2552,0.2568,0.2628,0.2687,0.275,0.286,0.3006,0.3075,0.3302,0.3543,0.3737,0.4028,0.3901,0.4013,0.3979,0.3662,0.3593,0.3606,0.3582,0.3709,0.3699,0.369,0.3682,0.3676,0,0.2436,0.2468,0.2531,0.2546,0.2571,0.263,0.2663,0.2748,0.2821,0.3036,0.3127,0.3375,0.3509,0.3711,0.366,0.3728,0.3943,0.3395,0.3215,0.3593,0.3564,0.3553,0.354,0.3042,0.3031,0.3022,0.3015,0,0.2487,0.2507,0.2543,0.2567,0.2598,0.2628,0.2694,0.2732,0.286,0.2954,0.3112,0.3215,0.3354,0.3253,0.3234,0.3232,0.333,0.3188,0.3806,0.3114,0.2953,0.2925,0.294,0.2934,0.2942,0.2948,0.2953,0.2956,0.2523,0.2544,0.2565,0.2583,0.261,0.2633,0.2609,0.2664,0.272,0.2785,0.2968,0.2964,0.2936,0.2726,0.2686,0.2606,0.2788,0.2629,0.2666,0.271,0.2507,0.2328,0.2157,0.216,0.2163,0.2165,0.2168,0,0.2568,0.2575,0.2569,0.2594,0.2594,0.2616,0.2627,0.2536,0.252,0.258,0.2603,0.2321,0.2206,0.2305,0.2011,0.1833,0.1924,0.179,0.1958,0.2033,0.2101,0.1877,0.1356,0.1354,0.1352,0.1351,0,0,0.259,0.2595,0.2564,0.2559,0.2567,0.2468,0.2428,0.2285,0.223,0.2104,0.2039,0.2076,0.2144,0.1717,0.1616,0.1485,0.1773,0.1416,0.2061,0.2336,0.2404,0.2558,0.2287,0,0,0,0,0]},{"header":{"parameterUnit":"m.s-1","parameterCategory":2,"la1":30.2991,"la2":30.254,"lo1":-89.0895,"lo2":-89.0444,"dy":0.0017,"dx":0.0017,"nx":28,"ny":28,"refTime":"2024-07-14T09:00:00:Z","depth":"2","parameterNumber":3,"parameterNumberName":"V-component_of_CURRENTS"},"data":[0,0,0,0,0,0,0,0,0,0,0,0,0,0,0,0,0,0,0,0,0,0,0,0,0,0,0,0,0,0,0,0,0,0,0,0,0,0,0,0,0,0,0,0,0,0,0,0,0,0,0,0,0,0,0,0,0,0,0.07,0.0701,0,0.0747,0.0748,0.0748,0.0703,0.0701,0.0699,0.0697,0.0601,0.06,0.06,0,0,0,0,0,0,0,0,0,0,0,0,0,0.0644,0.0645,0.07,0.0701,0.0701,0.0747,0.0748,0.0749,0.0703,0.0701,0.0698,0.0696,0.0601,0.0601,0.06,0,0,0,0,0,0,0,0,0,0,0,0,0,0.0679,0.0645,0.07,0.0682,0.0681,0.0747,0.0748,0.0749,0.0704,0.0701,0.0698,0.0695,0.0602,0.0601,0.06,0.0653,0,0,0.0596,0.0596,0,0,0,0,0,0,0,0,0.0677,0.0682,0.0685,0.0684,0.0682,0.0714,0.0693,0.0709,0.0705,0.0697,0.0697,0.0694,0.0627,0.0623,0.0644,0.0649,0.0645,0.0596,0.0596,0.0595,0.0595,0,0,0,0,0,0,0,0.0675,0.068,0.0721,0.0685,0.0684,0.0697,0.0698,0.0697,0.0677,0.0698,0.0694,0.0697,0.0625,0.0645,0.0641,0.0643,0.0596,0.0595,0.0595,0.0594,0.064,0.0641,0,0,0,0,0,0,0.0665,0.0678,0.0719,0.0722,0.067,0.07,0.0701,0.0709,0.068,0.0674,0.0699,0.0695,0.0648,0.0642,0.0637,0.0643,0.0595,0.0594,0.0594,0.0638,0.064,0.0642,0,0,0,0,0,0,0.0664,0.0668,0.0717,0.0699,0.0705,0.0703,0.0712,0.0711,0.0703,0.0683,0.0673,0.0688,0.0646,0.0638,0.0651,0.064,0.0594,0.0593,0.0636,0.0639,0.0641,0.069,0,0,0,0,0,0,0.0662,0.0668,0.0665,0.0698,0.0706,0.0758,0.0715,0.0714,0.071,0.0704,0.0671,0.0661,0.0643,0.0653,0.065,0.0638,0.0592,0.0633,0.0637,0.064,0.0686,0.0694,0.0701,0,0,0,0,0,0.066,0.0677,0.0665,0.0669,0.0703,0.076,0.0767,0.0756,0.0712,0.0732,0.0717,0.066,0.067,0.0655,0.0651,0.0638,0.0632,0.0636,0.064,0.0683,0.0692,0.0701,0,0,0,0,0,0,0.0654,0.0675,0.0661,0.0683,0.0715,0.0751,0.0757,0.075,0.0757,0.0729,0.07,0.0693,0.0699,0.0677,0.066,0.0665,0.0635,0.0639,0.0669,0.0678,0.0685,0.0666,0.0591,0,0,0,0,0,0.0652,0.0663,0.0695,0.071,0.0719,0.0733,0.0746,0.0744,0.0757,0.0754,0.0732,0.0713,0.0723,0.0705,0.0712,0.0719,0.0678,0.0705,0.0713,0.0719,0.0704,0.0678,0.068,0.0656,0.0656,0.0656,0,0,0.0655,0.0665,0.0671,0.0709,0.072,0.0755,0.0733,0.0754,0.0772,0.0743,0.0744,0.0743,0.0737,0.0754,0.075,0.0723,0.0705,0.0724,0.0729,0.071,0.0682,0.0684,0.0686,0.0658,0.0658,0.0657,0,0,0.0668,0.0672,0.068,0.0713,0.0733,0.0758,0.0759,0.0785,0.0778,0.0803,0.0788,0.0795,0.0784,0.0795,0.0795,0.0849,0.0759,0.0829,0.0829,0.0806,0.0806,0.0807,0.075,0.0745,0.0816,0.0816,0.0816,0,0.0662,0.0675,0.0698,0.0721,0.0742,0.0756,0.0782,0.0805,0.083,0.0829,0.0798,0.0817,0.0808,0.0841,0.0854,0.0861,0.0813,0.0793,0.0812,0.0811,0.081,0.0752,0.0746,0.0819,0.0818,0.0818,0.0818,0,0.0694,0.0695,0.0707,0.0736,0.078,0.0803,0.0844,0.0862,0.0842,0.0853,0.0866,0.0878,0.0876,0.088,0.0874,0.0874,0.083,0.0835,0.078,0.0815,0.0753,0.0745,0.0823,0.0822,0.0821,0.082,0,0,0.0683,0.0715,0.0711,0.0723,0.0779,0.0825,0.0862,0.0904,0.0917,0.0916,0.0929,0.0945,0.092,0.0921,0.0919,0.0893,0.085,0.0843,0.084,0.077,0.0753,0.0693,0.0678,0.0841,0.0841,0.084,0.0707,0,0.068,0.0701,0.0737,0.0781,0.0797,0.0847,0.0895,0.094,0.0951,0.0976,0.0968,0.0981,0.0945,0.0939,0.0911,0.0889,0.0832,0.0883,0.0743,0.0738,0.0668,0.0669,0.0619,0.0494,0.0699,0.0698,0.0697,0,0.0687,0.0697,0.0711,0.0782,0.0798,0.0838,0.0911,0.0959,0.1007,0.1009,0.1008,0.1006,0.0995,0.0955,0.0872,0.0895,0.0805,0.0768,0.0762,0.0679,0.0665,0.0496,0.0471,0.0683,0.0684,0.0685,0.0686,0,0.0648,0.069,0.0688,0.0713,0.0795,0.0814,0.0868,0.0938,0.099,0.1016,0.1044,0.1022,0.1017,0.0923,0.0842,0.0835,0.0741,0.0731,0.0584,0.0578,0.0494,0.0482,0.063,0.063,0.063,0.0631,0.0631,0,0.0634,0.0642,0.0657,0.0663,0.0704,0.0777,0.0832,0.0887,0.0968,0.1054,0.1037,0.1097,0.1001,0.0957,0.0848,0.0695,0.0733,0.0565,0.054,0.0511,0.0502,0.064,0.0643,0.0625,0.0627,0.0628,0.0628,0,0.0605,0.0598,0.0611,0.0655,0.0675,0.0705,0.0824,0.0886,0.0946,0.106,0.1071,0.1125,0.1062,0.0959,0.0829,0.0703,0.0575,0.0501,0.0457,0.0428,0.041,0.0418,0.0296,0.0293,0.029,0.0288,0.0286,0,0.0602,0.0583,0.0592,0.061,0.0622,0.0676,0.0741,0.0843,0.094,0.1105,0.1178,0.1154,0.117,0.0944,0.071,0.0468,0.0515,0.0264,0.0244,0.0388,0.0376,0.0388,0.0399,0.0145,0.0142,0.014,0.0138,0,0.0597,0.0562,0.0572,0.0598,0.0636,0.0722,0.0823,0.0914,0.1079,0.1189,0.1347,0.1363,0.1127,0.0873,0.0529,0.038,0.03,0.0204,0.0373,0.0249,0.0239,0.023,0.0247,0.0117,0.0119,0.012,0.0122,0.0122,0.0581,0.0589,0.0577,0.0639,0.0675,0.0795,0.0902,0.1039,0.1218,0.1391,0.1422,0.1404,0.1095,0.061,0.0363,0.01,0.012,0.0015,0.0025,0.0037,0.0055,0.0042,-0.0116,-0.0115,-0.0115,-0.0114,-0.0114,0,0.0589,0.0608,0.065,0.0714,0.0791,0.0815,0.0995,0.1101,0.1319,0.1389,0.1456,0.1163,0.0862,0.0572,0.0115,-0.0147,-0.0131,-0.0185,-0.0122,-0.0103,-0.0085,-0.0069,-0.0276,-0.0276,-0.0276,-0.0276,0,0,0.0582,0.0622,0.0681,0.0822,0.0886,0.1,0.1124,0.1232,0.1295,0.1367,0.1328,0.1195,0.0862,0.0506,0.0164,-0.0055,-0.0005,-0.0087,0.0051,0.0178,0.02,0.0017,0.0061,0,0,0,0,0]}],[{"header":{"parameterUnit":"m.s-1","parameterCategory":2,"la1":30.2991,"la2":30.254,"lo1":-89.0895,"lo2":-89.0444,"dy":0.0017,"dx":0.0017,"nx":28,"ny":28,"refTime":"2024-07-14T09:00:00:Z","depth":"4","parameterNumber":2,"parameterNumberName":"U-component_of_CURRENTS"},"data":[0,0,0,0,0,0,0,0,0,0,0,0,0,0,0,0,0,0,0,0,0,0,0,0,0,0,0,0,0,0,0,0,0,0,0,0,0,0,0,0,0,0,0,0,0,0,0,0,0,0,0,0,0,0,0,0,0,0,0.0146,0.0147,0,0.0308,0.0311,0.0313,0.0461,0.0462,0.0463,0.0464,0.0515,0.0516,0.0516,0,0,0,0,0,0,0,0,0,0,0,0,0,0.0085,0.0086,0.0145,0.0147,0.0148,0.0308,0.0311,0.0314,0.0461,0.0462,0.0463,0.0464,0.0515,0.0516,0.0516,0,0,0,0,0,0,0,0,0,0,0,0,0,0.0174,0.0086,0.0145,0.0234,0.0243,0.0307,0.0311,0.0315,0.046,0.0462,0.0463,0.0465,0.0515,0.0516,0.0516,0.0491,0,0,0.0518,0.0519,0,0,0,0,0,0,0,0,0.0168,0.0177,0.022,0.0228,0.0238,0.0358,0.0308,0.0365,0.046,0.0387,0.0464,0.0465,0.0445,0.0452,0.0493,0.0494,0.0496,0.0518,0.0519,0.0519,0.0519,0,0,0,0,0,0,0,0.0162,0.0171,0.0219,0.0221,0.0232,0.0307,0.0322,0.0322,0.0411,0.0393,0.0402,0.0406,0.0451,0.0493,0.0495,0.0497,0.0518,0.0519,0.0519,0.052,0.0576,0.0577,0,0,0,0,0,0,0.0116,0.0164,0.0213,0.0223,0.0196,0.0306,0.0322,0.0325,0.0413,0.0427,0.0405,0.0412,0.0491,0.0494,0.0497,0.0609,0.0519,0.052,0.052,0.0575,0.0576,0.0577,0,0,0,0,0,0,0.0114,0.0119,0.0207,0.0191,0.0206,0.0304,0.0307,0.0327,0.0452,0.0422,0.0435,0.0516,0.0492,0.0496,0.0562,0.0606,0.052,0.0521,0.0574,0.0575,0.0577,0.0742,0,0,0,0,0,0,0.0112,0.0117,0.0141,0.0187,0.0205,0.0303,0.0305,0.0329,0.0442,0.0456,0.0519,0.0521,0.0493,0.0561,0.0563,0.0605,0.0521,0.0572,0.0574,0.0576,0.0735,0.0749,0.0761,0,0,0,0,0,0.0109,0.0125,0.0141,0.0148,0.0221,0.0305,0.0326,0.0404,0.0446,0.0521,0.0553,0.0524,0.0573,0.0565,0.0565,0.0609,0.0571,0.0574,0.0576,0.073,0.0747,0.0761,0,0,0,0,0,0,0.0122,0.0141,0.016,0.0185,0.0265,0.0329,0.0409,0.0454,0.0548,0.0581,0.0559,0.0564,0.0627,0.0593,0.0584,0.0623,0.0558,0.0561,0.0674,0.069,0.0702,0.0734,0.0522,0,0,0,0,0,0.0124,0.0152,0.0191,0.0232,0.0278,0.0363,0.042,0.0478,0.054,0.0592,0.063,0.0639,0.0624,0.0645,0.0639,0.0681,0.0593,0.0698,0.0711,0.0723,0.0745,0.0618,0.0622,0.0585,0.0585,0.0585,0,0,0.0149,0.0159,0.0183,0.0239,0.032,0.0401,0.041,0.0532,0.0609,0.0572,0.0721,0.0703,0.0645,0.0688,0.071,0.0679,0.0689,0.0726,0.0737,0.0753,0.0621,0.0625,0.0627,0.0587,0.0587,0.0586,0,0,0.0209,0.0229,0.0284,0.0347,0.0451,0.0492,0.0543,0.0657,0.0733,0.0847,0.0806,0.0822,0.0871,0.0811,0.0781,0.0857,0.076,0.0861,0.0964,0.0842,0.0843,0.0844,0.075,0.074,0.0869,0.087,0.087,0,0.0243,0.0296,0.0325,0.04,0.0466,0.0541,0.0642,0.0714,0.0839,0.0878,0.0924,0.0936,0.0914,0.0869,0.0917,0.0888,0.0818,0.0916,0.0859,0.0857,0.0855,0.0758,0.0745,0.0878,0.0877,0.0876,0.0876,0,0.0333,0.0404,0.0461,0.0558,0.0636,0.0745,0.0818,0.0922,0.1019,0.1059,0.1117,0.1089,0.1086,0.1068,0.1043,0.1003,0.0959,0.0888,0.0824,0.0869,0.0763,0.0748,0.089,0.0887,0.0885,0.0882,0,0,0.0338,0.049,0.0519,0.0602,0.0733,0.0807,0.0928,0.1028,0.1089,0.1201,0.1249,0.1257,0.1256,0.1219,0.1153,0.1074,0.102,0.1021,0.101,0.0938,0.0779,0.0829,0.0815,0.0945,0.0943,0.0942,0.0717,0,0.0422,0.0568,0.0624,0.0803,0.0897,0.0982,0.1073,0.1164,0.1236,0.1296,0.1262,0.1293,0.1298,0.1306,0.1237,0.1055,0.0986,0.1089,0.0738,0.0729,0.0775,0.0801,0.0935,0.0705,0.0701,0.0698,0.0696,0,0.0484,0.0576,0.0753,0.0915,0.0969,0.1086,0.1223,0.1312,0.1358,0.1411,0.1428,0.1401,0.1341,0.1327,0.1092,0.1167,0.1028,0.0885,0.0869,0.0852,0.075,0.0643,0.0666,0.0668,0.067,0.0672,0.0674,0,0.0451,0.0661,0.0805,0.087,0.1057,0.1172,0.1282,0.1368,0.1409,0.1481,0.1477,0.1435,0.1375,0.1224,0.1001,0.106,0.0677,0.0688,0.059,0.0589,0.0535,0.0536,0.0515,0.0515,0.0516,0.0517,0.0517,0,0.0471,0.0592,0.0829,0.0904,0.1085,0.1219,0.1357,0.1451,0.1503,0.1476,0.1544,0.142,0.1349,0.1126,0.0973,0.0725,0.0647,0.0626,0.054,0.0612,0.0624,0.0524,0.0528,0.0508,0.051,0.0512,0.0513,0,0.0419,0.0558,0.0738,0.0989,0.1076,0.1222,0.1404,0.1433,0.1531,0.1479,0.1501,0.1392,0.1186,0.1039,0.0722,0.066,0.0415,0.0323,0.0406,0.0322,0.0441,0.0456,0.0296,0.0296,0.0296,0.0296,0.0296,0,0.0412,0.0497,0.0784,0.0874,0.1018,0.122,0.129,0.1448,0.1409,0.1364,0.1248,0.1142,0.1056,0.0654,0.0526,0.0322,0.029,0.0202,0.0409,0.0489,0.042,0.0435,0.0449,0.0296,0.0296,0.0296,0.0296,0,0.0392,0.0508,0.0639,0.0795,0.0939,0.1051,0.1153,0.1116,0.1185,0.1272,0.107,0.1002,0.0764,0.061,0.0477,0.0281,0.0311,0.0204,0.0207,0.0401,0.0487,0.0421,0.0436,0.0296,0.0296,0.0296,0.0296,0,0.0375,0.0435,0.0561,0.0706,0.0826,0.0825,0.0925,0.0895,0.0919,0.0934,0.0798,0.0703,0.0688,0.0562,0.0332,0.0298,0.0361,0.0377,0.0373,0.0372,0.051,0.0637,0.0427,0,0,0,0,0,0.0365,0.0357,0.0436,0.0532,0.0619,0.0705,0.0757,0.0812,0.0859,0.0747,0.0833,0.0651,0.0556,0.0419,0.0407,0.0315,0.0294,0.0294,0.0295,0.0296,0.0296,0.0457,0,0,0,0,0,0,0.0314,0.0373,0.0373,0.0342,0.038,0.0429,0.0491,0.0539,0.0479,0.0573,0.0492,0.0661,0.0506,0.0586,0.0407,0.0392,0.0393,0.0295,0.0295,0.0296,0.0296,0.0296,0.0462,0,0,0,0,0]},{"header":{"parameterUnit":"m.s-1","parameterCategory":2,"la1":30.2991,"la2":30.254,"lo1":-89.0895,"lo2":-89.0444,"dy":0.0017,"dx":0.0017,"nx":28,"ny":28,"refTime":"2024-07-14T09:00:00:Z","depth":"4","parameterNumber":3,"parameterNumberName":"V-component_of_CURRENTS"},"data":[0,0,0,0,0,0,0,0,0,0,0,0,0,0,0,0,0,0,0,0,0,0,0,0,0,0,0,0,0,0,0,0,0,0,0,0,0,0,0,0,0,0,0,0,0,0,0,0,0,0,0,0,0,0,0,0,0,0,0.0376,0.0376,0,0.0336,0.0335,0.0334,0.0349,0.0351,0.0352,0.0353,0.0165,0.0159,0.0153,0,0,0,0,0,0,0,0,0,0,0,0,0,0.0413,0.0413,0.0376,0.0376,0.0375,0.0336,0.0335,0.0334,0.0349,0.0351,0.0352,0.0353,0.0167,0.016,0.0153,0,0,0,0,0,0,0,0,0,0,0,0,0,0.0385,0.0413,0.0376,0.038,0.038,0.0336,0.0335,0.0334,0.0349,0.0351,0.0352,0.0354,0.017,0.0161,0.0152,0.0062,0,0,0.0124,0.012,0,0,0,0,0,0,0,0,0.0387,0.0384,0.038,0.0379,0.038,0.0351,0.028,0.0236,0.0349,0.0358,0.0353,0.0355,0.0214,0.0201,0.0189,0.0053,0.0045,0.0123,0.0118,0.0114,0.0111,0,0,0,0,0,0,0,0.0389,0.0385,0.0358,0.0379,0.0379,0.0366,0.0364,0.0272,0.0273,0.0358,0.0359,0.0358,0.0213,0.0198,0.0184,0.0042,0.0124,0.0116,0.011,0.0106,-0.0197,-0.0199,0,0,0,0,0,0,0.0399,0.0387,0.0359,0.0357,0.039,0.0364,0.0362,0.0357,0.0277,0.0268,0.0356,0.0359,0.0213,0.0195,0.0177,0.0064,0.0114,0.0106,0.01,-0.0194,-0.0198,-0.02,0,0,0,0,0,0,0.04,0.0397,0.0361,0.0373,0.0368,0.0362,0.0356,0.0355,0.0359,0.0278,0.0266,0.0364,0.0213,0.019,0.0083,0.0057,0.0101,0.0093,-0.0191,-0.0195,-0.0199,-0.0163,0,0,0,0,0,0,0.0401,0.0397,0.041,0.0374,0.0368,0.0336,0.0355,0.0353,0.0355,0.0358,0.0279,0.0263,0.0213,0.0097,0.0074,0.0045,0.0086,-0.0188,-0.0193,-0.0198,-0.0161,-0.0165,-0.0169,0,0,0,0,0,0.0403,0.0398,0.0411,0.0409,0.0381,0.0335,0.033,0.0331,0.0354,0.0343,0.028,0.0267,0.0051,0.0087,0.0061,0.0029,-0.0186,-0.0192,-0.0197,-0.0159,-0.0164,-0.0169,0,0,0,0,0,0,0.0413,0.0398,0.0412,0.0404,0.0379,0.0339,0.0348,0.0337,0.0284,0.0294,0.0223,0.0199,0.0094,0.0046,0.0089,-0.0077,-0.0067,-0.0078,-0.0029,-0.0035,-0.0039,-0.0005,0.0079,0,0,0,0,0,0.0425,0.0432,0.0398,0.04,0.0397,0.0378,0.0369,0.0357,0.0304,0.0288,0.0221,0.0142,0.0044,-0.0002,-0.0094,-0.0189,-0.021,-0.0227,-0.023,-0.0233,-0.0227,-0.0316,-0.0326,-0.022,-0.022,-0.022,0,0,0.0447,0.0429,0.0445,0.0406,0.0405,0.0367,0.0377,0.0362,0.0319,0.0266,0.0191,0.0118,0.0012,-0.0094,-0.0143,-0.0131,-0.0268,-0.0241,-0.0242,-0.0234,-0.0323,-0.0333,-0.0342,-0.0224,-0.0223,-0.0222,0,0,0.0457,0.0468,0.0471,0.044,0.0417,0.0385,0.0382,0.0335,0.0314,0.0227,0.0169,0.0077,-0.0051,-0.0142,-0.0202,-0.0291,-0.0293,-0.0309,-0.0296,-0.0383,-0.0391,-0.0399,-0.0392,-0.04,-0.0303,-0.0303,-0.0303,0,0.0481,0.0472,0.0462,0.0429,0.0418,0.0392,0.037,0.0318,0.0232,0.0199,0.0209,0.0003,-0.0079,-0.0228,-0.0246,-0.0299,-0.0306,-0.026,-0.0383,-0.0392,-0.0401,-0.0392,-0.0401,-0.0302,-0.0302,-0.0302,-0.0302,0,0.0469,0.0468,0.0466,0.0424,0.0394,0.0377,0.0307,0.0263,0.0244,0.0187,0.0066,-0.005,-0.0151,-0.021,-0.0248,-0.0365,-0.0333,-0.0379,-0.0355,-0.0408,-0.0397,-0.0406,-0.03,-0.03,-0.0301,-0.0301,0,0,0.0506,0.0474,0.0477,0.0482,0.0399,0.0382,0.0298,0.0223,0.0191,0.0091,0.0026,-0.0138,-0.0155,-0.0226,-0.0301,-0.0384,-0.0435,-0.0382,-0.0387,-0.0344,-0.0545,-0.0466,-0.0469,-0.049,-0.0493,-0.0495,-0.0493,0,0.0513,0.0494,0.0452,0.0437,0.0431,0.0371,0.0306,0.0224,0.0155,0.0068,-0.0057,-0.0131,-0.0177,-0.0188,-0.0297,-0.0438,-0.0466,-0.0426,-0.0528,-0.0529,-0.043,-0.0482,-0.0504,-0.0501,-0.0503,-0.0504,-0.0506,0,0.05,0.05,0.0517,0.0485,0.0482,0.0489,0.0426,0.0362,0.0208,0.0157,0.0044,-0.0063,-0.0218,-0.0219,-0.0441,-0.0404,-0.0438,-0.0525,-0.0528,-0.0475,-0.0471,-0.0456,-0.0523,-0.0522,-0.052,-0.0519,-0.0518,0,0.0545,0.0531,0.0577,0.0564,0.0519,0.0565,0.057,0.0448,0.04,0.0276,0.0203,-0.0004,-0.0083,-0.0228,-0.0389,-0.0405,-0.0603,-0.0657,-0.0602,-0.0593,-0.0674,-0.0666,-0.074,-0.074,-0.074,-0.074,-0.074,0,0.0533,0.0562,0.0663,0.0681,0.0776,0.0723,0.078,0.0718,0.0614,0.0505,0.033,0.0156,-0.0087,-0.0264,-0.0379,-0.0513,-0.0578,-0.0593,-0.0608,-0.0653,-0.0644,-0.0676,-0.0669,-0.074,-0.074,-0.074,-0.074,0,0.0543,0.0585,0.0661,0.0746,0.0811,0.0916,0.099,0.096,0.0877,0.0722,0.0691,0.0309,0.0061,-0.0136,-0.0389,-0.0471,-0.0611,-0.0597,-0.0555,-0.0568,-0.0536,-0.0528,-0.0588,-0.0585,-0.0583,-0.0582,-0.058,0,0.0536,0.059,0.0776,0.0884,0.0977,0.1137,0.1188,0.115,0.1031,0.0752,0.0588,0.0364,0.0111,-0.0189,-0.0384,-0.0518,-0.0526,-0.0536,-0.0615,-0.0522,-0.0531,-0.0525,-0.052,-0.0577,-0.0577,-0.0576,-0.0576,0,0.0541,0.0654,0.0724,0.0957,0.1118,0.1215,0.1262,0.1155,0.0974,0.0929,0.0521,0.0323,0.0044,-0.0233,-0.0254,-0.0393,-0.0542,-0.0517,-0.0524,-0.0598,-0.051,-0.052,-0.0516,-0.0569,-0.057,-0.057,-0.0571,0,0.0586,0.0658,0.0799,0.0977,0.1165,0.1179,0.1212,0.1042,0.0947,0.0585,0.0459,0.0178,0.0024,-0.0167,-0.0268,-0.0314,-0.037,-0.04,-0.0414,-0.0423,-0.0385,-0.025,-0.0241,0,0,0,0,0,0.0651,0.0683,0.0799,0.0919,0.1076,0.1189,0.1147,0.1088,0.0879,0.0628,0.0551,0.03,0.0076,-0.0121,-0.0152,-0.0248,-0.0372,-0.0289,-0.0411,-0.0531,-0.0539,-0.0517,0,0,0,0,0,0,0.0661,0.0788,0.0757,0.0834,0.0905,0.1016,0.1004,0.0872,0.066,0.0489,0.0341,0.0339,0.0092,0.0145,-0.0134,-0.0164,-0.0242,-0.0377,-0.0378,-0.0526,-0.0534,-0.054,-0.0521,0,0,0,0,0]}]]